Back to catalog

METEOR 2-17 DEB

AlivePO
NORAD 35371·DEBRIS·🇷🇺 Russia

Launched Jan 30, 1988 from Plesetsk Cosmodrome

Loading…

Next Passes (next 24 hours)

TLE

AgingSource: Space-Track

Epoch: Sep 7, 2026, 01:33 UTC

1 35371U 88005AF  26250.06500279  .00001433  00000-0  86278-3 0  9999
2 35371  82.5106 162.2097 0018082 350.4280   9.6545 14.06103088672028

Track METEOR 2-17 DEB in real time with AllMySat

Download on the App Store